Find Skykraft 4E

NORAD ID: 65227 Int'l Des: 2025-154 Owner: SKYKR Country: AU operational
LEOCIRCULARRETROGRADESSO

Live Position

Loading 3D Globe...

About Skykraft 4E

Description loading...

Upcoming Passes

Passes for default location (London). Set your location on the main map for personalized predictions.

Altitude History

Loading altitude history...

Two-Line Element Set

1 65227U 25154L 26107.11537782 .00003996 00000-0 35079-3 0 9993
2 65227 97.6717 173.0066 0006526 108.2796 251.9137 14.97147394 38194
Epoch: Apr 17, 2026 • Age: 11 hours

Current Status

Altitude 607.3 km
Velocity 7.55 km/s
Sub-Earth Point -74.13°S, 150.98°E
Launch Date Jul 23, 2025
Age 0.7 years
Type other

Technical Details

Classification Payload
Mass 50.00 kg
Dry Mass 50.00 kg
Total Mass 50.00 kg
Length 0.60 m
Diameter 0.10 m
Span 0.60 m
Shape Box
Manufacturer SKYKR
Bus Type Skykraft
Phase Status In Orbit
Owner/State SKYKR/AU

Most Searched